Regional Weather Roundup
Issued by NWS

Home | Current Version | Previous Version | Graphics & Text | Print | Product List | Glossary On
Versions: 1 2 3 4 5 6 7 8 9 10 11 12 13 14 15 16 17 18 19 20 21 22 23 24 25 26 27 28 29 30 31 32 33 34 35 36 37 38 39 40 41 42 43 44 45 46 47 48 49 50
000
ASUS43 KIND 251409
RWRIN

WEATHER ROUNDUP FOR INDIANA
NATIONAL WEATHER SERVICE INDIANAPOLIS IN
1000 AM EDT MON JUL 25 2016

NOTE: "FAIR" INDICATES FEW OR NO CLOUDS BELOW 12,000 FEET WITH NO
SIGNIFICANT WEATHER AND/OR OBSTRUCTIONS TO VISIBILITY.

* - STATION DOES NOT REPORT WEATHER SUCH AS PRECIPITATION OR FOG.

+ - STATION NOT QUALITY CONTROLLED BY THE NATIONAL WEATHER SERVICE.
    USE DATA WITH CAUTION...ESPECIALLY DEWPOINT AND RELATIVE
    HUMIDITY OBSERVATIONS.

INZ001>003-010>013-019-020-251500-
NORTHWEST INDIANA

CITY           SKY/WX    TMP DP  RH WIND       PRES   REMARKS
GARY /AIRPORT/ PTSUNNY   79 N/A N/A N10       30.00R
KNOX *+        MOSUNNY   73  64  73 W5        29.99R
LA PORTE +     SUNNY     80  72  75 N10       30.00R
MICHIGAN CITY+ SUNNY     77  68  73 N9G17     30.00R
MONTICELLO +   MOSUNNY   74  66  75 W5        30.01R
RENSSELAER +   CLOUDY    73  70  88 SW7       30.00F
VALPARAISO     SUNNY     79  68  69 VRB6      30.00R

$$

LMZ046-743>745-251500-
SOUTHERN LAKE MICHIGAN

STATION/POSITION TIME  TEMP    WIND        PRES    WAVE
                       AIR SEA DIR/SP/G            HT
                 (UTC) (F)     (DEG/KT/KT) (MB)    (FT)
BURNS HARBOR     1300   74     310/  7/  9 1015.6R
MICHIGAN CITY    1300   75     290/  5/  6   N/A
5NW MICH CITY    1400   75 73  330/ 10/ 14   N/A     2

$$

INZ004-005-014>016-021>024-251500-
NORTH CENTRAL INDIANA

CITY           SKY/WX    TMP DP  RH WIND       PRES   REMARKS
ELKHART        MOSUNNY   77  73  88 W6        29.98R
GOSHEN         CLOUDY    77  68  73 W8        29.99R
LOGANSPORT +   CLOUDY    73  68  83 W5        30.03R
PERU/GRISSOM   MOSUNNY   75  70  86 W8        30.01R
ROCHESTER +    PTSUNNY   77  72  83 W6        30.01R
SOUTH BEND     SUNNY     78  69  73 NW10      29.99R
WARSAW +       MOSUNNY   73  68  83 W6        30.00R

$$

INZ006>009-017-018-025>027-251500-
NORTHEAST INDIANA

CITY           SKY/WX    TMP DP  RH WIND       PRES   REMARKS
ANGOLA *+        N/A     77  72  83 W8        29.97S
AUBURN +       CLOUDY    77  64  65 W6        30.00R
FORT WAYNE     CLOUDY    74  67  78 W5        30.00F
HUNTINGTON +   CLOUDY   N/A N/A N/A W3        30.01R

$$

INZ028-029-035-036-043>045-051>053-251500-
WEST CENTRAL INDIANA

CITY           SKY/WX    TMP DP  RH WIND       PRES   REMARKS
CRAWFORDSVL +  CLOUDY    75  72  90 CALM      30.03S
GREENCASTLE +  MOSUNNY   77  72  83 CALM      30.02F
LAFAYETTE      PTSUNNY   75  72  90 SW5       30.01R
TERRE HAUTE    CLOUDY    78  68  71 CALM      30.01F

$$

INZ030>032-037>040-046>048-054>057-064-065-251500-
CENTRAL INDIANA

CITY           SKY/WX    TMP DP  RH WIND       PRES   REMARKS
INDIANAPOLIS   PTSUNNY   83  66  56 W10       30.03R
-EAGLE CREEK   CLOUDY    83  68  60 W6        30.01S
KOKOMO *+      CLOUDY    75  64  69 W8        30.03R
MARION +       CLOUDY    75  67  77 W5        30.03R
MT COMFORT *+  MOSUNNY   79  68  69 CALM      30.03S
SHELBYVILLE    CLOUDY    79  71  76 NW6       30.02R
ZIONSVILLE +   MOSUNNY   78  69  73 W3        30.03S

$$

INZ033-034-041-042-049-050-058-059-251500-
EAST CENTRAL INDIANA

CITY           SKY/WX    TMP DP  RH WIND       PRES   REMARKS
MUNCIE         CLOUDY    79  68  69 NW3       30.03S

$$

INZ060-061-067>069-081>083-085>088-251500-
SOUTHWEST INDIANA

CITY           SKY/WX    TMP DP  RH WIND       PRES   REMARKS
EVANSVILLE     MOSUNNY   83  74  74 SW3       30.01R
HUNTINGBURG *+ MOSUNNY   82  75  78 CALM      30.01R
WASHINGTON +   PTSUNNY   77  73  87 MISG      30.00S

$$

INZ062-063-066-070>080-084-089>092-251500-
SOUTH CENTRAL AND SOUTHEAST INDIANA

CITY           SKY/WX    TMP DP  RH WIND       PRES   REMARKS
BLOOMINGTON    CLOUDY    79  71  76 VRB3      30.02R
MADISON *+     MOSUNNY   84  77  79 SW5       30.03S

$$





USA.gov is the U.S. government's official web portal to all federal, state and local government web resources and services.